Theta_e
315 315 315 315 315 315 315 315 316 316 316 316 315 315 315 314 313 306 299 305 308 316 317 308 305 306 302 295 296 299 290 289 293 298 299 305 304 308 307 305 311 312 316 321 342
316 315 315 316 315 314 314 314 315 316 316 316 315 315 315 314 304 300 309 315 318 318 309 302 298 301 295 293 294 293 288 291 298 302 300 304 307 305 305 305 303 308 312 335 341
316 316 316 317 317 316 316 315 315 315 315 315 315 315 314 310 294 295 315 318 318 318 306 303 300 299 290 290 292 290 289 298 302 305 306 307 308 310 308 301 306 303 306 319 327
317 317 317 317 317 316 316 316 315 315 314 314 315 314 313 305 285 301 326 322 320 315 308 300 295 293 289 289 290 287 294 301 303 307 309 307 307 308 308 309 311 306 305 307 320
317 316 316 316 316 315 315 315 315 314 313 313 314 314 307 296 295 305 320 329 316 311 305 297 292 291 289 289 291 289 293 297 302 306 307 310 308 307 309 312 312 306 306 304 306
316 316 317 316 316 315 315 314 315 314 313 313 315 314 302 292 305 313 320 318 312 307 302 296 294 295 291 290 291 293 294 295 298 299 304 303 305 308 309 312 311 310 306 303 304
315 315 314 315 315 316 315 314 314 313 313 314 315 309 301 297 309 314 312 308 311 304 300 296 296 297 294 291 294 294 288 293 297 301 301 305 300 301 306 310 307 306 306 304 303
315 315 315 315 314 314 315 315 313 313 313 315 316 307 296 309 309 305 309 306 311 305 302 301 298 295 293 296 293 290 289 283 291 300 300 301 292 301 306 307 306 310 309 304 304
315 313 313 314 314 313 314 314 314 315 315 315 308 303 295 313 309 310 308 303 305 303 301 304 298 293 296 290 286 285 282 284 289 296 298 297 294 301 304 306 305 307 308 307 301
314 313 312 312 313 313 313 313 312 314 312 311 309 299 303 304 310 307 306 304 301 298 297 295 292 290 288 286 281 283 284 286 289 292 297 295 295 300 302 302 302 304 305 304 302
314 314 312 312 312 312 310 304 303 302 305 298 300 301 307 312 313 303 307 302 301 295 288 291 288 286 289 290 291 289 288 288 291 296 294 293 294 296 299 297 297 299 300 301 301
314 313 312 312 311 312 309 298 302 301 296 304 305 304 308 311 305 304 307 299 297 292 292 290 287 293 294 293 292 291 288 288 292 296 294 293 293 296 298 297 297 299 300 300 300
312 311 312 312 311 307 301 301 306 304 294 300 305 305 305 307 304 305 303 300 295 291 290 288 292 297 295 292 291 290 288 288 290 293 294 292 290 293 298 298 299 298 299 300 300
311 311 311 312 304 301 299 307 307 305 289 295 300 304 306 306 302 310 303 302 295 291 291 290 294 294 292 292 292 287 293 293 292 289 285 292 283 289 293 295 298 298 298 300 301
311 311 311 311 304 300 305 305 304 301 282 300 301 308 304 300 301 301 305 303 296 293 292 290 291 291 290 292 294 291 295 293 292 287 286 287 284 288 292 293 296 297 300 301 303
310 310 311 307 304 304 306 305 303 291 284 298 300 298 298 298 299 302 301 303 302 295 293 292 296 295 294 296 295 296 290 288 286 284 280 285 285 285 289 293 297 299 301 301 301
310 310 308 309 298 303 304 300 289 285 300 296 294 296 296 295 296 298 296 294 292 288 288 291 291 295 297 292 295 290 285 279 278 278 279 286 285 286 294 299 299 299 299 300 300
309 308 307 306 307 306 303 294 283 294 296 303 298 295 292 295 295 296 294 291 295 293 289 286 284 293 299 294 291 288 285 280 277 276 279 288 283 289 299 299 298 298 298 299 298
308 301 298 301 306 305 299 287 288 294 301 299 297 292 291 295 294 295 293 292 294 294 289 288 289 299 301 299 296 290 286 288 282 282 280 283 287 295 298 298 299 299 299 297 297
303 298 299 306 308 303 296 292 296 303 303 302 293 295 289 294 294 291 292 299 296 296 295 291 287 297 300 301 298 293 294 286 283 278 277 281 284 285 293 294 296 296 296 296 297
297 292 302 309 307 300 292 294 299 304 303 300 297 295 295 295 295 294 295 299 301 298 296 292 289 290 293 292 291 291 288 288 287 283 278 278 282 292 293 294 293 294 295 295 296
299 288 303 309 297 296 293 297 300 302 306 304 302 298 295 294 293 292 293 297 303 301 295 296 290 285 287 293 295 292 290 289 283 282 281 279 281 294 292 293 293 294 296 296 297
295 293 302 307 293 294 298 299 302 301 302 300 299 300 299 294 291 294 295 298 299 299 296 296 288 284 284 289 292 290 292 291 289 287 283 281 283 295 295 293 293 293 294 296 296
296 289 295 300 301 296 294 296 297 304 301 301 298 299 296 292 292 292 292 296 300 300 302 298 289 286 282 283 287 287 290 291 288 284 284 285 287 293 293 292 293 293 294 294 294
296 292 297 289 295 296 296 296 295 295 300 301 298 297 294 290 288 288 292 293 296 298 294 290 284 287 288 290 290 288 289 289 287 286 284 286 289 293 293 292 292 293 294 294 293
295 296 298 291 293 295 294 293 293 296 295 295 296 296 295 290 290 287 289 289 289 293 290 288 283 284 284 288 287 285 288 288 288 288 289 289 288 293 292 292 292 292 294 292 292
300 302 298 293 290 289 292 293 294 297 296 296 296 294 293 293 293 291 291 291 292 290 287 286 284 281 279 284 284 280 284 286 288 289 288 284 289 291 290 291 291 292 293 292 292
Wind_Speed
17 16 15 15 15 14 15 14 14 14 13 15 14 13 13 13 13 7 13 14 15 22 2 4 5 5 1 3 3 4 3 8 9 7 3 3 3 4 3 5 3 4 2 4 13
18 17 16 16 15 14 14 14 14 14 15 14 13 12 11 11 7 14 18 18 21 7 8 2 6 10 3 5 3 5 5 9 8 5 5 5 5 7 6 9 7 4 5 9 12
18 18 17 17 17 16 15 14 14 15 15 14 12 9 6 7 5 12 7 25 18 16 8 7 3 7 3 3 4 3 4 6 8 5 7 5 11 4 4 3 5 7 1 5 4
17 18 18 18 18 17 17 16 16 16 15 13 11 7 3 2 7 0 7 8 19 13 4 7 5 8 6 6 3 2 6 9 6 3 6 5 11 18 5 7 8 9 4 3 11
16 19 20 20 20 19 19 19 18 17 17 13 10 4 0 2 17 8 12 9 15 12 10 8 6 7 7 6 3 5 4 7 4 8 5 8 11 17 28 12 10 9 11 2 7
15 17 18 20 20 20 19 18 16 16 16 13 10 8 3 7 5 3 6 15 14 14 9 9 9 7 5 3 8 6 9 7 6 6 3 3 12 12 33 6 11 10 13 12 9
16 18 20 20 19 19 17 17 16 17 15 14 7 8 6 20 5 6 7 5 10 6 10 2 2 7 4 4 6 7 3 7 5 7 4 6 17 18 35 18 21 11 12 11 11
17 17 18 18 19 20 19 18 20 23 16 10 11 6 11 6 5 2 4 6 10 6 6 10 5 3 3 4 3 7 5 4 5 9 4 15 13 29 29 5 24 24 17 10 12
19 21 20 19 20 20 17 18 22 10 5 11 7 4 13 7 4 8 9 9 6 6 2 4 9 3 6 2 3 1 6 6 6 12 8 16 10 16 17 8 27 24 23 15 11
20 20 21 20 19 17 15 18 11 2 6 6 2 3 8 5 4 7 5 15 7 5 5 4 3 5 3 4 5 5 6 6 13 11 21 21 20 16 22 21 25 24 26 20 12
20 20 22 22 20 17 10 2 1 3 7 12 9 6 4 6 2 4 8 8 7 4 6 4 5 8 11 12 10 5 4 4 5 5 6 13 17 18 16 6 10 14 16 14 13
22 22 23 22 23 19 3 3 6 2 9 20 13 12 10 3 5 5 16 8 5 7 3 3 7 10 10 6 5 4 3 4 5 4 6 8 12 9 7 7 9 17 17 13 7
22 22 23 22 25 1 3 8 2 5 4 7 9 7 7 9 8 7 13 7 7 7 7 7 5 6 6 5 5 5 5 5 5 3 1 4 6 5 1 5 6 8 6 5 7
22 22 19 21 1 2 6 4 5 6 2 7 6 8 7 6 5 8 10 8 4 11 8 5 4 7 5 6 7 5 9 6 4 5 4 1 3 5 5 7 4 4 1 5 6
22 22 18 8 10 5 2 4 1 2 5 5 4 3 5 9 5 5 7 4 8 6 7 6 2 2 4 8 9 10 7 9 5 6 5 1 5 7 4 5 3 6 5 7 7
25 24 18 6 4 12 7 7 1 3 9 5 7 7 6 3 2 4 4 5 4 6 2 7 3 3 4 2 4 1 5 7 5 5 2 5 7 6 4 2 5 4 8 7 6
26 27 18 7 7 3 4 4 2 6 4 5 6 6 6 6 4 5 6 6 7 6 5 2 4 4 3 2 2 5 6 4 4 3 5 2 3 7 3 1 4 4 6 6 5
33 32 9 7 11 7 3 4 5 6 7 1 4 6 7 8 6 6 7 4 0 4 4 6 4 7 3 5 6 2 6 7 6 4 3 4 3 3 5 6 3 6 5 8 9
30 4 4 5 9 8 3 3 7 6 6 1 2 4 5 5 6 6 6 6 7 7 7 5 2 2 1 4 5 3 3 3 8 4 4 2 3 5 4 6 9 9 10 10 10
10 7 5 1 13 4 4 9 7 4 7 5 5 3 7 7 6 6 9 2 5 6 1 6 4 1 1 2 5 4 5 4 4 5 3 3 3 5 4 5 5 8 8 8 8
3 6 6 4 4 1 6 8 6 10 2 3 5 3 2 6 4 4 7 2 4 3 4 4 5 3 2 3 5 2 3 6 5 4 6 3 6 4 3 1 6 6 7 7 7
3 5 1 1 2 2 3 5 5 8 9 2 4 6 5 4 4 3 4 3 4 5 4 3 4 3 2 4 2 2 3 5 6 4 2 4 6 1 6 6 5 6 6 5 6
6 5 5 2 4 3 5 7 9 12 0 2 3 2 1 3 6 4 4 4 3 5 7 5 2 3 6 5 5 2 2 4 5 4 7 7 6 4 6 6 4 5 5 4 4
3 5 5 4 0 4 5 5 9 6 2 4 2 4 2 7 6 5 4 6 4 5 8 4 3 4 7 4 3 3 3 2 5 4 4 5 3 6 4 5 2 3 3 3 3
2 4 2 4 1 5 6 4 4 4 3 0 3 4 9 1 2 5 3 3 5 7 6 5 4 2 2 3 2 2 3 4 5 5 6 4 7 8 3 7 4 1 1 2 5
3 4 4 4 6 4 5 5 6 3 7 1 5 7 6 3 5 7 7 2 1 6 4 4 3 2 2 4 3 3 6 6 7 5 6 6 7 4 4 5 3 3 3 3 5
2 3 2 5 5 3 1 5 7 1 10 10 8 11 9 1 1 5 6 4 6 6 3 4 6 3 3 3 4 5 6 6 4 2 4 8 7 3 2 4 3 5 4 5 7
Wind_Direction
336 335 333 331 331 330 329 327 324 322 322 327 325 311 313 314 309 278 245 220 192 232 71 329 118 149 158 251 229 139 142 207 194 161 201 78 9 340 271 338 323 337 212 288 127
335 333 331 330 327 328 324 323 320 318 317 318 322 310 317 325 307 262 239 213 209 212 206 174 202 135 177 203 249 159 190 214 188 164 117 28 6 330 11 343 4 344 47 69 131
334 331 331 328 325 324 320 316 316 315 314 316 319 312 322 341 322 248 264 221 215 201 171 176 150 121 179 175 203 219 220 221 216 150 95 62 337 310 353 330 345 292 87 130 129
331 328 326 323 322 320 319 315 314 314 312 308 309 303 308 337 279 266 50 179 196 184 174 154 156 150 153 200 217 321 243 226 239 96 80 38 343 312 278 261 271 285 281 238 171
326 326 324 321 318 317 317 314 312 313 310 302 289 249 208 235 250 287 299 180 168 170 174 152 144 134 178 188 144 194 295 275 108 82 92 40 311 275 277 290 280 311 324 216 269
327 320 316 317 317 314 314 312 307 307 306 295 279 175 180 252 228 291 71 129 165 168 169 145 172 173 161 203 183 205 208 272 177 104 136 124 278 272 278 297 304 307 291 286 183
322 322 320 319 315 312 309 306 305 304 297 282 206 173 224 242 140 90 111 147 178 201 145 229 169 156 127 171 205 207 175 251 207 161 153 110 292 254 264 289 284 291 276 264 264
320 314 319 319 316 315 314 307 307 301 280 253 182 187 254 237 216 219 192 94 188 267 133 149 106 337 206 273 84 138 133 229 222 156 191 135 235 257 259 267 307 286 265 244 264
321 326 324 322 317 317 313 311 314 317 220 162 148 212 261 298 205 182 174 144 165 314 32 128 124 209 332 71 21 328 196 187 283 186 182 197 228 254 259 142 255 267 277 259 219
326 325 321 319 314 312 311 307 295 72 135 161 209 274 260 248 179 145 146 131 139 120 340 112 58 141 42 91 224 213 219 184 208 204 192 207 237 230 241 234 224 229 242 254 254
319 316 321 319 317 315 323 16 176 216 230 202 187 243 270 314 195 140 144 133 114 111 182 241 143 196 215 194 208 203 212 188 205 164 127 198 210 220 235 210 226 227 234 241 239
319 321 320 321 317 313 213 207 224 215 286 226 235 251 277 17 297 151 128 134 146 205 155 96 239 225 211 203 191 200 218 246 275 222 159 182 218 217 191 231 214 224 224 221 236
321 320 319 319 313 102 224 223 253 349 248 274 192 207 215 165 216 228 157 149 155 184 188 170 212 181 190 182 185 215 185 211 205 29 276 97 335 311 212 240 241 232 203 193 237
319 318 319 326 355 306 244 231 243 165 315 257 225 257 167 184 235 207 175 139 170 180 165 215 241 194 184 222 172 229 209 211 185 100 223 116 237 291 276 292 285 22 283 246 233
314 314 317 326 297 248 253 53 182 97 313 182 184 148 138 163 152 209 182 95 173 153 115 239 210 191 167 210 168 226 194 201 193 158 128 271 98 264 311 273 316 319 327 323 322
317 314 313 290 233 240 299 336 121 47 246 208 140 167 132 202 238 129 132 84 146 138 163 209 237 223 224 163 206 204 93 45 68 117 156 203 144 266 202 249 301 325 340 340 331
312 306 295 238 226 161 206 162 82 205 298 192 183 163 155 168 196 162 163 169 160 135 171 182 225 262 176 146 320 79 67 11 4 6 215 316 120 210 255 272 235 287 354 358 10
318 308 269 207 216 250 349 65 222 241 238 176 140 122 166 157 210 174 135 174 251 125 131 166 247 189 183 168 181 60 137 151 188 177 234 2 263 283 345 331 52 75 70 45 34
318 321 270 243 171 147 145 194 219 229 278 334 75 149 212 176 146 140 171 193 193 174 163 147 241 21 145 151 130 195 69 159 100 14 69 255 296 354 351 20 42 33 41 34 36
320 315 262 121 164 147 118 232 236 251 324 323 209 204 176 174 132 152 159 170 177 196 127 198 160 16 253 122 35 110 154 67 18 133 201 290 274 208 194 42 28 25 32 39 48
347 334 329 124 206 106 197 224 247 273 7 276 263 234 195 162 136 151 170 89 81 45 97 126 119 267 42 27 155 44 84 54 105 112 153 159 255 289 113 98 97 56 53 65 55
332 322 134 275 297 200 212 205 268 277 310 259 248 204 179 166 119 130 131 71 112 60 75 352 120 140 115 308 261 87 167 138 129 198 108 140 267 330 103 100 97 101 88 71 76
311 278 301 132 289 299 308 266 290 280 209 2 296 308 142 129 110 113 112 359 54 89 166 197 327 62 355 3 10 89 128 118 106 96 189 158 246 168 110 87 64 121 105 76 58
296 313 316 29 11 343 324 290 313 326 79 88 70 326 60 23 11 120 100 28 28 97 84 94 86 148 185 166 160 137 121 123 113 137 193 213 242 209 149 151 129 111 113 72 31
244 270 103 319 337 306 289 295 293 327 4 53 61 59 60 51 12 99 83 96 40 359 50 85 120 120 124 106 114 213 227 195 185 189 177 211 217 240 207 185 148 341 144 16 346
282 320 348 273 295 280 16 319 320 353 347 359 133 97 87 212 273 174 119 117 134 21 61 19 115 89 65 54 61 240 234 224 231 227 243 235 251 239 128 112 24 319 255 309 321
297 290 285 293 317 348 159 304 289 106 353 345 119 109 101 244 335 97 91 104 138 125 97 80 126 102 223 355 326 290 238 218 159 92 207 214 245 154 56 359 314 292 273 333 314